Location: Peterborough
(44.3091°N, 78.3197°W)
Time: 10:27:39
(UTC-05:00)

Transit 2A - Visible Passes

Search period start: 02 December 2023 00:00
Search period end: 12 December 2023 00:00
Orbit: 600 x 953 km, 66.7° (Epoch: 01 December)

Date Brightness Start Highest point End Pass type
(mag) Time Alt. Az. Time Alt. Az. Time Alt. Az.
02 Dec 8.2 18:29:56 10° WNW 18:31:49 12° NW 18:33:38 10° NNW visible
03 Dec 8.1 17:53:33 10° W 17:56:34 16° NW 17:59:28 10° N visible
04 Dec 7.8 17:17:36 10° W 17:21:24 22° NW 17:25:00 10° N visible
07 Dec 8.1 17:18:28 10° WNW 17:20:13 12° NW 17:21:56 10° NNW visible
